Regional Weather Roundup
Issued by NWS

Home | Current Version | Previous Version | Graphics & Text | Print | Product List | Glossary On
Versions: 1 2 3 4 5 6 7 8 9 10 11 12 13 14 15 16 17 18 19 20 21 22 23 24 25 26 27 28 29 30 31 32 33 34 35 36 37 38 39 40 41 42 43 44 45 46 47 48 49 50
000
ASUS43 KLOT 041208
RWRIL

ILLINOIS REGIONAL WEATHER ROUNDUP
NATIONAL WEATHER SERVICE CHICAGO/ROMEOVILLE IL
700 AM CDT SAT JUL 04 2015

NOTE: "FAIR" INDICATES FEW OR NO CLOUDS BELOW 12,000 FEET WITH NO
SIGNIFICANT WEATHER AND/OR OBSTRUCTIONS TO VISIBILITY.

* THESE STATIONS ARE NOT UNDER NWS QUALITY CONTROL. THEY ALSO MAY NOT
  REPORT WEATHER SUCH AS PRECIPITATION OR FOG.

ILZ001-002-007-009-015-016-024-041300-
NORTHWEST ILLINOIS

CITY           SKY/WX    TMP DP  RH WIND       PRES   REMARKS
MOLINE         SUNNY     59  56  89 CALM      29.99R FOG
6HR MIN TEMP:  56; 6HR MAX TEMP:  61;

STERLING*      SUNNY     57  55  94 CALM      30.00R
SAVANNA*       SUNNY     58  56  95 CALM      30.00R FOG
$$

ILZ003-004-008-010-011-017-018-041300-
NORTH CENTRAL ILLINOIS

CITY           SKY/WX    TMP DP  RH WIND       PRES   REMARKS
ROCKFORD       SUNNY     58  56  93 CALM      30.00R FOG
6HR MIN TEMP:  57; 6HR MAX TEMP:  61;

FREEPORT*      SUNNY     57  55  93 CALM      30.01R
ROCHELLE*      SUNNY     56  55  99 CALM      30.00S FOG
DE KALB*       SUNNY     59  55  88 CALM      30.00S
PERU*          SUNNY     60  58  90 N3        30.00R
$$

ILZ005-006-012>014-019>023-041300-
NORTHEAST ILLINOIS

CITY           SKY/WX    TMP DP  RH WIND       PRES   REMARKS
CHICAGO-OHARE  SUNNY     63  57  81 NW3       29.98R
6HR MIN TEMP:  59; 6HR MAX TEMP:  63;

CHICAGO-MIDWAY MOSUNNY   64  58  80 CALM      29.98R
6HR MIN TEMP:  62; 6HR MAX TEMP:  66;

AURORA         SUNNY     60  56  86 NW3       30.00R FOG
6HR MIN TEMP:  57; 6HR MAX TEMP:  61;

LANSING*       SUNNY     59  56  90 CALM      29.99R FOG
JOLIET*        SUNNY     60  59  96 CALM      29.99R FOG
WAUKEGAN       SUNNY     61  56  83 VRB5      29.98R
6HR MIN TEMP:  55; 6HR MAX TEMP:  61;

DUPAGE AIRPORT SUNNY     60  56  86 CALM      29.98S FOG
6HR MIN TEMP:  55; 6HR MAX TEMP:  60;

KANKAKEE*      SUNNY     60  59  97 CALM      29.99S FOG
WHEELING       SUNNY     61  55  81 CALM      29.99R
6HR MIN TEMP:  57; 6HR MAX TEMP:  61;

MORRIS*        SUNNY     59  57  91 CALM      29.95S FOG
ROMEOVILLE*    SUNNY     61  59  92 CALM      29.99S FOG
NORTHERLY ISL    N/A     67  54  63 W7          N/A
$$

LMZ740>746-041300-
SOUTHERN LAKE MICHIGAN

STATION/POSITION SKY/WX   TEMP    WIND        PRES    VSBY  WAVE
                          AIR SEA DIR/SP/G                  HT/PER
                          (F)     (DEG/KT/KT) (MB)    (MI)  (FT/S)
HARRISON CRIB              66     270/  9/ 10   N/A
BURNHAM HARBOR             67     270/  9/  9   N/A
CALUMET HARBOR             61     240/  3/  4   N/A
BURNS HARBOR               60     190/  3/  3 1015.6R
MICHIGAN CITY              58     150/  2/  3   N/A
MICHIGAN CITY 6N           62 63  180/  2/  4   N/A           0
ST. JOSEPH                 60 62                N/A           0
$$

ILZ025>027-034>036-040-047-049-050-058-095>099-041300-
WEST-CENTRAL ILLINOIS

CITY           SKY/WX    TMP DP  RH WIND       PRES   REMARKS
QUINCY         SUNNY     62  60  93 NE3       29.99R FOG
GALESBURG*     SUNNY     58  58  98 CALM      30.00R FOG
MACOMB*        SUNNY     58  57  99 CALM      30.01R
JACKSONVILLE*  SUNNY     64  62  96 CALM      29.99R FOG
PITTSFIELD*    SUNNY     63  61  93 CALM      30.01R FOG
$$

ILZ028>032-037-038-041>044-048-051>054-059>061-041300-
CENTRAL ILLINOIS

CITY           SKY/WX    TMP DP  RH WIND       PRES   REMARKS
PONTIAC        SUNNY     60  60  99 CALM      30.00R FOG
BLOOMINGTON    SUNNY     62  59  90 CALM      30.01R
DECATUR        PTSUNNY   60  58  92 E5        29.99R FOG
PEORIA         SUNNY     64  59  83 CALM      29.99R HAZE
6HR MIN TEMP:  60; 6HR MAX TEMP:  64;

LACON*         MOSUNNY   60  58  96 CALM      29.99R FOG
LINCOLN*       SUNNY     60  59  95 CALM      30.00R FOG
SPRINGFIELD    SUNNY     63  60  90 CALM      29.99R
6HR MIN TEMP:  60; 6HR MAX TEMP:  64;

TAYLORVILLE      N/A     59  59 100 CALM      30.00R FOG
$$

ILZ033-039-045-046-055>057-062-063-041300-
EAST-CENTRAL ILLINOIS

CITY           SKY/WX    TMP DP  RH WIND       PRES   REMARKS
CHAMPAIGN      SUNNY     61  59  93 CALM      29.99R FOG
DANVILLE*      SUNNY     58  58  99 CALM      29.97R FOG
RANTOUL*       SUNNY     62  60  92 CALM      29.99S FOG
MATTOON        SUNNY     61  60  97 CALM      29.98S FOG
PARIS*         SUNNY     61  61  99 CALM      30.00R FOG
$$

ILZ079-100>102-041300-
SOUTHWEST ILLINOIS

CITY           SKY/WX    TMP DP  RH WIND       PRES   REMARKS
ALTON          SUNNY     63  63 100 CALM      29.99R FOG
BELLEVILLE     SUNNY     66  66 100 CALM      29.98R
CAHOKIA*       SUNNY     66  64  93 CALM      29.99R FOG
SPARTA*        SUNNY     66  65  98 CALM      30.00R FOG
$$

ILZ064>066-069>071-074>076-080>082-084>086-088>090-092>094-041300-
SOUTH-CENTRAL ILLINOIS

CITY           SKY/WX    TMP DP  RH WIND       PRES   REMARKS
CARBONDALE     SUNNY     69  67  93 N3        29.99R FOG
6HR MIN TEMP:  67; 6HR MAX TEMP:  70;

CAIRO*         CLOUDY    69  69  99 CALM      29.96S FOG
EFFINGHAM*     SUNNY     64  61  90 CALM      30.01R FOG
MARION         PTSUNNY   66  66 100 SW3       29.99R FOG
MT. VERNON     SUNNY     64  61  88 CALM      30.00R
CENTRALIA*       N/A     64  63  94 CALM      30.00R FOG
SALEM*         SUNNY     66  64  91 CALM      29.99R FOG
METROPOLIS*    CLOUDY    68  68 100 CALM      29.98R FOG
$$

ILZ067-068-072-073-078-083-087-091-041300-
SOUTHEAST ILLINOIS

CITY           SKY/WX    TMP DP  RH WIND       PRES   REMARKS
LAWRENCEVILLE  SUNNY     66  64  93 CALM      29.98R FOG
FLORA*         SUNNY     65  64  99 CALM      30.00R FOG
FAIRFIELD*     SUNNY     66  65  97 CALM      29.97R FOG
HARRISBURG*    FOG       67  67 100 CALM      29.99R VSB 1/2
ROBINSON*      SUNNY     64  63  98 CALM      29.99R FOG
CARMI*         SUNNY     67  63  85 CALM      29.98R FOG
$$

ABBREVIATIONS USED IN REMARKS
   TC - TEMPERATURE IN CELSIUS
  WCI - WIND CHILL INDEX
   HX - HEAT INDEX
  VSB - VISIBILITY
$$




USA.gov is the U.S. government's official web portal to all federal, state and local government web resources and services.